Location: Caltech
(34.1382°N, 118.1253°W)
Time: 05:38:07
(UTC-07:00)

HO-68 - Visible Passes

Search period start: 31 March 2015 00:00
Search period end: 10 April 2015 00:00
Orbit: 1193 x 1204 km, 100.2° (Epoch: 31 March)

Date Brightness Start Highest point End Pass type
(mag) Time Alt. Az. Time Alt. Az. Time Alt. Az.
31 Mar ? 19:28:02 10° ESE 19:32:50 20° ENE 19:37:57 10° NNE visible
31 Mar ? 21:14:30 18° S 21:20:00 68° WSW 21:27:10 10° NNW visible
01 Apr ? 20:57:16 17° SSE 21:03:05 89° WSW 21:10:19 10° NNW visible
01 Apr ? 22:48:52 10° WSW 22:51:51 12° W 22:54:13 10° WNW visible
02 Apr ? 20:40:02 14° SSE 20:46:13 70° ENE 20:53:23 10° N visible
02 Apr ? 22:29:51 10° SW 22:34:37 18° W 22:39:01 10° NW visible
03 Apr ? 20:22:48 11° SE 20:29:23 53° ENE 20:36:20 10° N visible
03 Apr ? 22:12:15 12° SW 22:17:28 25° W 22:23:00 10° NW visible
04 Apr ? 20:06:05 10° SE 20:12:35 40° ENE 20:19:12 10° N visible
04 Apr ? 21:55:01 14° SSW 22:00:22 34° W 22:06:40 10° NW visible
05 Apr ? 19:49:52 10° ESE 19:55:49 30° ENE 20:01:57 10° N visible
05 Apr ? 21:37:47 16° SSW 21:43:20 45° W 21:50:08 10° NNW visible
06 Apr ? 19:33:54 10° ESE 19:39:05 23° ENE 19:44:33 10° NNE visible
06 Apr ? 21:20:33 16° S 21:26:21 61° WSW 21:33:27 10° NNW visible
07 Apr ? 21:03:20 15° SSE 21:09:25 81° WSW 21:16:39 10° NNW visible
07 Apr ? 22:57:08 10° W 22:58:19 10° W 22:58:48 10° W visible
08 Apr ? 20:46:06 13° SSE 20:52:32 78° ENE 20:59:45 10° NNW visible
08 Apr ? 22:36:52 10° SW 22:41:04 15° W 22:44:49 10° WNW visible
09 Apr ? 20:28:52 11° SSE 20:35:41 59° ENE 20:42:45 10° N visible
09 Apr ? 22:18:28 10° SW 22:23:53 22° W 22:29:02 10° NW visible
